Weather History for KPCZ - February, 2014

Change the Weather History Date:

Tuesday, February 4, 2014

  Actual Average (KCLI) Record (KCLI)
Temperature  
Mean Temperature 10 °F -  
Max Temperature 20 °F 26 °F - (-1)
Min Temperature 0 °F 5 °F - (-1)
Degree Days  
Heating Degree Days 55    
Moisture  
Dew Point 3 °F    
Average Humidity 69    
Maximum Humidity 81    
Minimum Humidity 53    
Precipitation  
Precipitation 0.00 in - - ()
Sea Level Pressure  
Sea Level Pressure 30.35 in    
Wind  
Wind Speed 2 mph (NNW)    
Max Wind Speed 6 mph    
Max Gust Speed -    
Visibility 9 miles    
Events      
Averages and records for this station are not official NWS values.
T = Trace of Precipitation, MM = Missing Value Source: NWS Daily Summary

Daily Weather History Graph

Daily Weather History Graph

Search for Another Location

Airport or City:

Trip Planner

Search our weather history database for the weather conditions in past years. The results will help you decide how hot, cold, wet, or windy it might be!

Date:

Astronomy

Feb. 04, 2014 Rise Set
Actual Time 7:10 AM CST 5:09 PM CST
Civil Twilight 6:40 AM CST 5:40 PM CST
Nautical Twilight 6:05 AM CST 6:15 PM CST
Astronomical Twilight 5:31 AM CST 6:49 PM CST
Moon 9:34 AM CST (2/4) 11:19 PM CST (2/4)
Length of Visible Light 11h 00m
Length of Day
9h 59m
Waxing Crescent, 29% of the Moon is Illuminated
Feb 4
Waxing Crescent
Feb 6
First Quarter
Feb 14
Full
Feb 22
Last Quarter
Mar 1
New

Hourly Weather History & Observations

Time (CST) Temp. Windchill Dew Point Humidity Pressure Visibility Wind Dir Wind Speed Gust Speed Precip Events Conditions
12:15 AM 5.9 °F - -0.0 °F 77% 30.31 in 10.0 mi Calm Calm - N/A   Clear
12:35 AM 7.9 °F - 2.3 °F 78% 30.31 in 10.0 mi Calm Calm - N/A   Clear
12:55 AM 7.3 °F - 1.9 °F 79% 30.32 in 10.0 mi Calm Calm - N/A   Clear
1:15 AM 10.0 °F 1.8 °F 3.7 °F 76% 30.33 in 10.0 mi WNW 4.6 mph - N/A   Clear
1:35 AM 10.2 °F 3.8 °F 3.2 °F 73% 30.34 in 10.0 mi West 3.5 mph - N/A   Clear
1:55 AM 10.4 °F 2.2 °F 3.4 °F 73% 30.35 in 10.0 mi WNW 4.6 mph - N/A   Clear
2:15 AM 9.9 °F 1.6 °F 3.0 °F 74% 30.36 in 10.0 mi West 4.6 mph - N/A   Clear
2:35 AM 8.2 °F - 1.0 °F 72% 30.36 in 10.0 mi Calm Calm - N/A   Clear
2:55 AM 1.8 °F -7.8 °F -4.0 °F 77% 30.37 in 10.0 mi SW 4.6 mph - N/A   Clear
3:15 AM 6.1 °F -2.8 °F 1.2 °F 80% 30.36 in 10.0 mi WNW 4.6 mph - N/A   Clear
3:35 AM 7.7 °F -2.4 °F 2.7 °F 80% 30.37 in 10.0 mi WNW 5.8 mph - N/A   Clear
3:55 AM 6.6 °F -0.3 °F 0.5 °F 76% 30.37 in 10.0 mi WNW 3.5 mph - N/A   Clear
4:15 AM 4.8 °F - -0.8 °F 78% 30.37 in 10.0 mi Calm Calm - N/A   Clear
4:35 AM 2.3 °F - -3.1 °F 78% 30.37 in 10.0 mi Calm Calm - N/A   Clear
4:55 AM 2.3 °F - -2.4 °F 81% 30.37 in 10.0 mi Calm Calm - N/A   Clear
5:15 AM 2.1 °F - -2.6 °F 81% 30.37 in 7.0 mi Calm Calm - N/A   Clear
5:35 AM 1.2 °F - -4.2 °F 78% 30.37 in 5.0 mi Calm Calm - N/A   Haze
5:55 AM 1.8 °F - -3.3 °F 79% 30.37 in 7.0 mi Calm Calm - N/A   Clear
6:15 AM 1.4 °F - -3.6 °F 79% 30.38 in 7.0 mi Calm Calm - N/A   Clear
6:35 AM 0.3 °F - -4.9 °F 79% 30.38 in 7.0 mi Calm Calm - N/A   Scattered Clouds
6:55 AM -0.9 °F -11.0 °F -5.6 °F 81% 30.38 in 7.0 mi NNW 4.6 mph - N/A   Overcast
7:15 AM 1.2 °F -10.1 °F -3.3 °F 81% 30.37 in 7.0 mi NNW 5.8 mph - N/A   Overcast
7:35 AM 3.6 °F -5.7 °F -1.7 °F 79% 30.37 in 7.0 mi NNW 4.6 mph - N/A   Overcast
7:55 AM 3.6 °F - -1.8 °F 78% 30.39 in 7.0 mi Calm Calm - N/A   Overcast
8:15 AM 2.8 °F - -2.2 °F 79% 30.40 in 7.0 mi Calm Calm - N/A   Scattered Clouds
8:35 AM 4.3 °F - -1.3 °F 78% 30.41 in 7.0 mi Calm Calm - N/A   Mostly Cloudy
8:55 AM 4.3 °F - -0.8 °F 80% 30.42 in 7.0 mi Calm Calm - N/A   Overcast
9:15 AM 5.4 °F - 0.5 °F 80% 30.42 in 7.0 mi Calm Calm - N/A   Overcast
9:35 AM 8.4 °F - 3.2 °F 79% 30.42 in 10.0 mi Calm Calm - N/A   Overcast
9:55 AM 10.4 °F 4.0 °F 3.2 °F 73% 30.42 in 10.0 mi NNW 3.5 mph - N/A   Overcast
10:15 AM 12.2 °F 6.1 °F 2.3 °F 65% 30.42 in 10.0 mi NNW 3.5 mph - N/A   Overcast
10:35 AM 13.5 °F 7.5 °F 2.8 °F 63% 30.42 in 10.0 mi North 3.5 mph - N/A   Mostly Cloudy
10:55 AM 15.8 °F 8.6 °F 3.2 °F 58% 30.39 in 10.0 mi NNE 4.6 mph - N/A   Clear
11:15 AM 16.5 °F 8.1 °F 3.0 °F 55% 30.39 in 10.0 mi NNE 5.8 mph - N/A   Clear
11:35 AM 17.1 °F 11.7 °F 3.6 °F 56% 30.39 in 10.0 mi NNE 3.5 mph - N/A   Clear
11:55 AM 18.5 °F - 3.9 °F 53% 30.38 in 10.0 mi Calm Calm - N/A   Clear
12:15 PM 18.3 °F - 3.9 °F 53% 30.37 in 10.0 mi Calm Calm - N/A   Clear
12:35 PM 19.8 °F 13.2 °F 5.4 °F 54% 30.37 in 10.0 mi ESE 4.6 mph - N/A   Clear
12:55 PM 19.4 °F 14.3 °F 5.5 °F 55% 30.35 in 10.0 mi ESE 3.5 mph - N/A   Clear
1:15 PM 19.6 °F - 5.2 °F 54% 30.35 in 10.0 mi Calm Calm - N/A   Clear
1:35 PM 20.3 °F - 5.7 °F 53% 30.35 in 10.0 mi Calm Calm - N/A   Clear
1:55 PM 20.1 °F - 5.9 °F 54% 30.34 in 10.0 mi Calm Calm - N/A   Clear
2:15 PM 20.1 °F 15.2 °F 5.9 °F 54% 30.33 in 10.0 mi NNW 3.5 mph - N/A   Clear
2:35 PM 20.3 °F 13.8 °F 5.9 °F 54% 30.33 in 10.0 mi North 4.6 mph - N/A   Clear
2:55 PM 20.3 °F 15.4 °F 5.9 °F 54% 30.34 in 10.0 mi North 3.5 mph - N/A   Clear
3:15 PM 20.1 °F 15.2 °F 5.9 °F 54% 30.34 in 10.0 mi North 3.5 mph - N/A   Clear
3:35 PM 20.1 °F 15.2 °F 5.5 °F 53% 30.34 in 10.0 mi NNE 3.5 mph - N/A   Clear
3:55 PM 19.8 °F - 5.7 °F 55% 30.35 in 10.0 mi Calm Calm - N/A   Clear
4:15 PM 19.4 °F 14.3 °F 5.5 °F 55% 30.32 in 10.0 mi NNE 3.5 mph - N/A   Clear
4:35 PM 19.2 °F - 5.9 °F 56% 30.30 in 10.0 mi Calm Calm - N/A   Clear
4:55 PM 18.9 °F - 5.9 °F 57% 30.31 in 10.0 mi Calm Calm - N/A   Clear
5:15 PM 18.5 °F - 5.7 °F 58% 30.32 in 10.0 mi Calm Calm - N/A   Clear
5:35 PM 16.3 °F - 5.5 °F 63% 30.34 in 10.0 mi Calm Calm - N/A   Clear
6:15 PM 16.7 °F - 5.9 °F 63% 30.33 in 10.0 mi Calm Calm - N/A   Clear
6:35 PM 14.9 °F - 5.9 °F 68% 30.34 in 10.0 mi Calm Calm - N/A   Clear
6:55 PM 14.5 °F 8.8 °F 6.3 °F 70% 30.32 in 7.0 mi North 3.5 mph - N/A   Clear
7:15 PM 13.3 °F - 5.7 °F 72% 30.31 in 10.0 mi Calm Calm - N/A   Clear
7:35 PM 13.8 °F 8.0 °F 5.5 °F 70% 30.30 in 10.0 mi North 3.5 mph - N/A   Clear
7:55 PM 14.7 °F 9.0 °F 5.9 °F 68% 30.29 in 10.0 mi North 3.5 mph - N/A   Clear
8:15 PM 14.0 °F - 5.0 °F 67% 30.29 in 10.0 mi Calm Calm - N/A   Clear
8:35 PM 13.6 °F 7.7 °F 5.0 °F 68% 30.28 in 10.0 mi North 3.5 mph - N/A   Clear
8:55 PM 14.0 °F - 5.5 °F 69% 30.29 in 10.0 mi Calm Calm - N/A   Clear
9:15 PM 14.4 °F 8.6 °F 5.5 °F 68% 30.28 in 10.0 mi North 3.5 mph - N/A   Clear
9:35 PM 14.0 °F 8.2 °F 5.4 °F 69% 30.28 in 10.0 mi North 3.5 mph - N/A   Clear
9:55 PM 13.1 °F 7.1 °F 4.8 °F 70% 30.27 in 10.0 mi North 3.5 mph - N/A   Clear
10:15 PM 13.1 °F 7.1 °F 5.4 °F 71% 30.27 in 10.0 mi North 3.5 mph - N/A   Clear
10:35 PM 13.5 °F 5.8 °F 5.4 °F 70% 30.27 in 10.0 mi North 4.6 mph - N/A   Clear
10:55 PM 13.8 °F - 5.5 °F 70% 30.28 in 10.0 mi Calm Calm - N/A   Clear
11:15 PM 13.3 °F 7.3 °F 5.2 °F 70% 30.28 in 10.0 mi North 3.5 mph - N/A   Scattered Clouds
11:35 PM 13.6 °F 6.0 °F 5.5 °F 70% 30.28 in 10.0 mi NNW 4.6 mph - N/A   Clear
11:55 PM 14.0 °F 6.5 °F 5.5 °F 69% 30.28 in 10.0 mi North 4.6 mph - N/A   Clear